Location: Newark
(39.9581°N, 97.2014°W)
Time: 20:51:44
(UTC+00:00)

Envisat - Pass Details

Date: 21 January 2020
Orbit: 764 x 766 km, 98.1° (Epoch: 22 February)

Event Time Altitude Azimuth Distance (km) Brightness Sun altitude
Rises 12:02:47 0° 30° (NNE) 3,239 6.5 -19.6°
Reaches altitude 10° 12:05:47 10° 48° (NE) 2,307 6.0 -19.0°
Maximum altitude 12:09:20 19° 92° (E) 1,767 5.9 -18.4°
Drops below altitude 10° 12:12:51 10° 137° (SE) 2,295 6.3 -17.7°
Sets 12:15:48 0° 155° (SSE) 3,215 6.8 -17.2°
